Home > Weather > Patna > Past weeks

Flag for India Past Weather in Patna, Bihar, India — Yesterday and Last 2 Weeks

Now
90 °F

Scattered clouds.


Feels Like: 108 °F
Forecast: 85 / 98 °F
Wind: 7 mph from East

Location: Patna Airport

Current Time: Jun 26, 2016 at 10:14:15 AM

Latest Report: Jun 26, 2016 at 9:30 AM


Visibility: 2 mi

Pressure: 29.62 "Hg

Humidity: 75%

Dew Point: 81 °F

Location of PatnaLocation

Past Weather in Patna — Graph

°F

Patna Temperature Yesterday

Maximum temperature yesterday: 95 °F (at 11:30 AM)
Minimum temperature yesterday: 84 °F (at 5:30 AM)
Average temperature yesterday: 89 °F

High & Low Weather Summary for the Past Weeks

 TemperatureHumidityPressure
High104 °F (Jun 12, 2:30 PM)100% (Jun 21, 8:00 PM)29.68 "Hg (Jun 21, 8:00 PM)
Low75 °F (Jun 13, 5:30 AM)44% (Jun 15, 2:30 PM)29.36 "Hg (Jun 12, 4:00 PM)
Average90 °F71%29.52 "Hg
* Reported Jun 11 8:30 AM — Jun 26 9:00 AM, Patna, Weather by CustomWeather, © 2016

Note: Actual official high and low records may vary slightly from our data, if they occured in-between our weather recording intervals... More about our weather records

Advertising

Patna Weather History for the Previous 24 Hours

Scroll right to see more
 ConditionsComfort  
Time TempWeatherWind HumidityBarometerVisibility
9:00 AM
Sun, Jun 26
90 °FScattered clouds.12 mph75%29.62 "Hg2 mi
8:30 AM88 °FScattered clouds.9 mph79%29.62 "Hg2 mi
8:00 AM86 °FScattered clouds.9 mph84%29.65 "Hg2 mi
7:30 AM86 °FScattered clouds.7 mph84%29.65 "Hg2 mi
7:00 AM84 °FScattered clouds.9 mph89%29.62 "Hg2 mi
9:00 PM
Sat, Jun 25
86 °FPartly cloudy.9 mph84%29.59 "Hg2 mi
8:30 PM86 °FPartly cloudy.5 mph84%29.53 "Hg2 mi
8:00 PM86 °FPartly cloudy.5 mph79%29.56 "Hg2 mi
7:30 PM88 °FPartly cloudy.5 mph79%29.56 "Hg2 mi
7:00 PM88 °FBroken clouds.6 mph79%29.53 "Hg2 mi
6:30 PM88 °FBroken clouds.7 mph79%29.53 "Hg2 mi
6:00 PM88 °FBroken clouds.8 mph79%29.53 "Hg2 mi
5:30 PM88 °FBroken clouds.7 mph79%29.53 "Hg2 mi
5:00 PM88 °FBroken clouds.8 mph79%29.53 "Hg2 mi
4:30 PM88 °FBroken clouds.7 mph79%29.53 "Hg2 mi
4:00 PM88 °FBroken clouds.8 mph79%29.53 "Hg2 mi
3:30 PM90 °FBroken clouds.9 mph75%29.53 "Hg2 mi
3:00 PM90 °FBroken clouds.10 mph75%29.53 "Hg2 mi
2:30 PM90 °FBroken clouds.9 mph79%29.53 "Hg2 mi
2:00 PM90 °FBroken clouds.7 mph79%29.56 "Hg2 mi
1:30 PM95 °FBroken clouds.7 mph63%29.56 "Hg2 mi
1:00 PM95 °FBroken clouds.7 mph63%29.56 "Hg2 mi
12:30 PM95 °FBroken clouds.7 mph63%29.59 "Hg2 mi
12:00 PM95 °FBroken clouds.7 mph63%29.59 "Hg2 mi
11:30 AM95 °FScattered clouds.7 mph63%29.59 "Hg2 mi
11:00 AM93 °FScattered clouds.8 mph67%29.59 "Hg2 mi
10:30 AM91 °FBroken clouds.7 mph71%29.59 "Hg2 mi
10:00 AM90 °FBroken clouds.6 mph75%29.62 "Hg2 mi
Weather by CustomWeather, © 2016

See weather overviewHow to use our weather pages